DECAYED
Showing default

CELESTIS 21/VARISAT 1C, 52766 (Decayed)

Orbit data source: Space-Track

CELESTIS 21/VARISAT 1C, 52766 was a payload satellite owned by Varisat LLC (US) in LEO that was launched on Wed, 25 May 2022 UTC via an FALCON 9 launch vehicle from the Air Force Eastern Test Range (AFETR). Payload-class satellites include a variety of spacecraft equipped with specific instruments for various scientific and technological missions. These include communications satellites like Starlink; space stations such as the ISS; scientific satellites like the Hubble; Earth observation satellites from companies like Planet Labs, Umbra, and HawkEye 360; GPS; miniature CubeSats for education and research; and military/defense satellites.

Not visible in the next 10 days
Identifier
52766, 2022-057AL
Orbit
Decayed
Country
Flag of USUS
Related business
None
Manufacturer
OmniTeq
Mission
Decayed Commercial Communications
Bus & Motor
CUBESAT 6U, Unknown motor
Mass
11 kg wet, 11 kg dry
Launch date (UTC)
2022-05-25 (4 years ago)
Launch vehicle
FALCON 9
Launch site
Air Force Eastern Test Range (AFETR)
Object type
Payload
Rocket body
Debris
Shape & HBR
Box + 4 Pan + 2 Ant, 3.0 m
Radar Cross Section
0.973 m², Medium (>0.1 m² and < 1m²)

Expand to show TLE details & history
Last TLE update: 1 year ago

TLE from 1 year ago
0 CELESTIS 21/VARISAT 1C
1 52766U 22057AL  25176.64799660  .13857605  27391-5  25307-3 0  9992
2 52766  97.5832 331.2310 0012137 233.7199 258.4922 16.46795272172486
Epoch: 2025-06-25T15:33Z
TLE epoch observation values (Epoch: 2025-06-25T15:33:06.906Z)
Latitude
47.47978°
Longitude
12.22511°
Altitude
156.889 km
Speed
7.816 km/s
True Right ascension
10h 38m 07s
True Declination
47° 17' 33"
Sunlit
Object was in daylight at epoch
Visualization orbit readout
Latitude
Unknown
Longitude
Unknown
Altitude
Unknown
Speed
Unknown
Apparent Right ascension
Unknown
Apparent Declination
Unknown
Sunlit
N/A
Visualization observer readout
Local Sidereal Time
23:21:04
Azimuth
Unknown
Elevation
Unknown
Doppler factor
Unknown
Orbital elements
Apogee altitude
152.512 km
Perigee altitude
136.679 km
Semi-major axis
6,522.732 km
Eccentricity
0.00121
Inclination
97.5832°
RAAN
331.231°
Arg. of periapsis
233.7199°
True anomaly
258.35596°
Mean anomaly
258.4922°
Eccentric anomaly
258.42407°
Mean motion
4.12002 °/min
Orbital period
87.38 mins
BSTAR
0.00025307
Loading maneuver chart data...
Computing Atmospheric mass density...

Documentation

Showing up to 5 results
|